ANE125D LEMD-LEXJ

Flight info

Callsign ANE125D
Flight time 0h 36m
Altitude 24000
Route SIE N865 UNGAS Y753 EMANU
Aircraft CRJX/M-SDFGIRWY/S

Departure

Time 2026-05-06 08:20
Airport Adolfo Suárez Madrid–Barajas Airport (LEMD)

Arrival

Time 2026-05-06 08:56
Airport Seve Ballesteros-Santander Airport (LEXJ)
Time Latitude Longitude Altitude Speed Heading
2026-05-06 08:10 40.49789 -3.59184 1979 ft 0 kts 182°
2026-05-06 08:17 40.49785 -3.59184 1983 ft 3 kts 182°
2026-05-06 08:17 40.49753 -3.59170 1981 ft 5 kts 138°
2026-05-06 08:17 40.49743 -3.59134 1980 ft 8 kts 89°
2026-05-06 08:17 40.49747 -3.58971 1982 ft 27 kts 88°
2026-05-06 08:18 40.49734 -3.58665 1982 ft 39 kts 89°
2026-05-06 08:18 40.49739 -3.58294 1979 ft 34 kts 89°
2026-05-06 08:18 40.49693 -3.58058 1980 ft 25 kts 157°
2026-05-06 08:18 40.49487 -3.58059 1980 ft 31 kts 181°
2026-05-06 08:19 40.49295 -3.58056 1979 ft 19 kts 163°
2026-05-06 08:19 40.49242 -3.57908 1982 ft 21 kts 88°
2026-05-06 08:19 40.49249 -3.57697 1979 ft 25 kts 86°
2026-05-06 08:19 40.49333 -3.57499 1982 ft 27 kts 28°
2026-05-06 08:20 40.49544 -3.57463 1979 ft 47 kts
2026-05-06 08:20 40.50141 -3.57464 1979 ft 123 kts 360°
2026-05-06 08:20 40.51130 -3.57462 2415 ft 143 kts
2026-05-06 08:20 40.52042 -3.57466 3429 ft 133 kts
2026-05-06 08:21 40.53003 -3.57473 4151 ft 143 kts
2026-05-06 08:21 40.54060 -3.57486 4799 ft 159 kts 360°
2026-05-06 08:21 40.55206 -3.57547 5485 ft 171 kts 350°
2026-05-06 08:21 40.56196 -3.58452 6111 ft 187 kts 304°
2026-05-06 08:22 40.56996 -3.59937 6775 ft 210 kts 309°
2026-05-06 08:22 40.58056 -3.61382 7543 ft 227 kts 317°
2026-05-06 08:22 40.59286 -3.62748 8403 ft 239 kts 320°
2026-05-06 08:22 40.60171 -3.63677 9120 ft 242 kts 321°
2026-05-06 08:23 40.61939 -3.65533 10440 ft 248 kts 321°
2026-05-06 08:23 40.63288 -3.66976 11392 ft 251 kts 323°
2026-05-06 08:23 40.64351 -3.67665 11991 ft 255 kts 347°
2026-05-06 08:23 40.66706 -3.67701 13296 ft 259 kts
2026-05-06 08:24 40.67899 -3.67500 13928 ft 261 kts
2026-05-06 08:24 40.69717 -3.67140 14791 ft 265 kts
2026-05-06 08:24 40.71555 -3.66773 15632 ft 269 kts
2026-05-06 08:24 40.73422 -3.66466 16470 ft 272 kts
2026-05-06 08:25 40.75324 -3.66210 17307 ft 276 kts
2026-05-06 08:25 40.77249 -3.65941 18143 ft 280 kts
2026-05-06 08:25 40.79197 -3.65660 18858 ft 284 kts
2026-05-06 08:25 40.81179 -3.65377 19540 ft 289 kts
2026-05-06 08:26 40.83194 -3.65089 20204 ft 293 kts
2026-05-06 08:26 40.85237 -3.64792 20880 ft 297 kts
2026-05-06 08:26 40.87309 -3.64498 21564 ft 301 kts
2026-05-06 08:26 40.89385 -3.64196 22193 ft 306 kts
2026-05-06 08:27 40.91512 -3.63885 22815 ft 310 kts
2026-05-06 08:27 40.93676 -3.63571 23423 ft 315 kts 359°
2026-05-06 08:27 40.95897 -3.63253 23744 ft 327 kts 359°
2026-05-06 08:27 40.98219 -3.62926 23897 ft 345 kts 360°
2026-05-06 08:28 41.00673 -3.62580 23959 ft 363 kts
2026-05-06 08:28 41.03257 -3.62234 24005 ft 382 kts
2026-05-06 08:28 41.05925 -3.61873 24016 ft 399 kts
2026-05-06 08:28 41.08778 -3.61467 24037 ft 415 kts
2026-05-06 08:29 41.11661 -3.61059 24023 ft 429 kts
2026-05-06 08:29 41.14668 -3.60619 24018 ft 441 kts
2026-05-06 08:29 41.17759 -3.60336 24022 ft 448 kts 355°
2026-05-06 08:29 41.20892 -3.60554 24024 ft 455 kts 351°
2026-05-06 08:30 41.24094 -3.60797 24019 ft 466 kts 353°
2026-05-06 08:30 41.27362 -3.60822 24019 ft 468 kts 355°
2026-05-06 08:30 41.30596 -3.60815 24032 ft 458 kts 355°
2026-05-06 08:30 41.33762 -3.60907 24019 ft 450 kts 354°
2026-05-06 08:31 41.36877 -3.61021 24015 ft 444 kts 354°
2026-05-06 08:31 41.39917 -3.61112 24005 ft 439 kts 354°
2026-05-06 08:31 41.42957 -3.61177 24004 ft 434 kts 354°
2026-05-06 08:31 41.45965 -3.61244 24002 ft 430 kts 354°
2026-05-06 08:32 41.48957 -3.61325 24003 ft 426 kts 354°
2026-05-06 08:32 41.51872 -3.61405 24020 ft 423 kts 355°
2026-05-06 08:32 41.54808 -3.61438 24019 ft 420 kts 356°
2026-05-06 08:32 41.57719 -3.61413 24017 ft 417 kts 356°
2026-05-06 08:33 41.60627 -3.61410 24013 ft 415 kts 356°
2026-05-06 08:33 41.63509 -3.61411 24013 ft 413 kts 356°
2026-05-06 08:33 41.66371 -3.61420 24011 ft 411 kts 356°
2026-05-06 08:33 41.69220 -3.61419 24012 ft 409 kts 356°
2026-05-06 08:34 41.72062 -3.61420 24022 ft 407 kts 356°
2026-05-06 08:34 41.77665 -3.61412 24014 ft 403 kts 357°
2026-05-06 08:34 41.80467 -3.61413 24015 ft 402 kts 357°
2026-05-06 08:35 41.83272 -3.61417 24015 ft 404 kts 357°
2026-05-06 08:35 41.86098 -3.61413 24018 ft 408 kts 357°
2026-05-06 08:35 41.88946 -3.61415 24020 ft 410 kts 357°
2026-05-06 08:35 41.91819 -3.61413 24017 ft 413 kts 357°
2026-05-06 08:36 41.94700 -3.61418 24024 ft 415 kts 358°
2026-05-06 08:36 41.97560 -3.61418 24024 ft 417 kts 359°
2026-05-06 08:36 42.00470 -3.61419 24024 ft 418 kts 359°
2026-05-06 08:36 42.03388 -3.61430 24025 ft 420 kts 358°
2026-05-06 08:37 42.06313 -3.61545 24022 ft 421 kts 356°
2026-05-06 08:37 42.09240 -3.61757 24020 ft 422 kts 355°
2026-05-06 08:37 42.12184 -3.61960 24021 ft 423 kts 356°
2026-05-06 08:37 42.15124 -3.62147 24025 ft 424 kts 356°
2026-05-06 08:38 42.18079 -3.62339 24024 ft 424 kts 356°
2026-05-06 08:38 42.21029 -3.62521 24023 ft 425 kts 356°
2026-05-06 08:38 42.23984 -3.62712 24020 ft 425 kts 356°
2026-05-06 08:38 42.26941 -3.62900 24019 ft 426 kts 356°
2026-05-06 08:39 42.29904 -3.63091 24022 ft 426 kts 356°
2026-05-06 08:39 42.32830 -3.63277 24022 ft 426 kts 356°
2026-05-06 08:39 42.35795 -3.63470 24025 ft 427 kts 356°
2026-05-06 08:39 42.38748 -3.63919 24020 ft 427 kts 351°
2026-05-06 08:40 42.41688 -3.64607 24020 ft 427 kts 349°
2026-05-06 08:40 42.44617 -3.65299 24023 ft 427 kts 350°
2026-05-06 08:40 42.47555 -3.65921 23778 ft 426 kts 351°
2026-05-06 08:40 42.50485 -3.66495 22953 ft 423 kts 352°
2026-05-06 08:41 42.53380 -3.67073 22238 ft 418 kts 352°
2026-05-06 08:41 42.56246 -3.67643 21568 ft 413 kts 351°
2026-05-06 08:41 42.59072 -3.68205 20912 ft 409 kts 351°
2026-05-06 08:41 42.61868 -3.68765 20296 ft 404 kts 351°
2026-05-06 08:42 42.64605 -3.69308 19720 ft 401 kts 351°
2026-05-06 08:42 42.67356 -3.69869 19211 ft 398 kts 351°
2026-05-06 08:42 42.70080 -3.70489 18948 ft 396 kts 349°
2026-05-06 08:42 42.72776 -3.71229 18671 ft 394 kts 347°
2026-05-06 08:43 42.75443 -3.72040 18401 ft 392 kts 347°
2026-05-06 08:43 42.78106 -3.72831 18083 ft 390 kts 347°
2026-05-06 08:43 42.80752 -3.73605 17591 ft 388 kts 348°
2026-05-06 08:43 42.83386 -3.74374 17055 ft 385 kts 347°
2026-05-06 08:44 42.85998 -3.75144 16545 ft 382 kts 347°
2026-05-06 08:44 42.88589 -3.75909 16036 ft 380 kts 347°
2026-05-06 08:44 42.91170 -3.76668 15549 ft 378 kts 347°
2026-05-06 08:44 42.93760 -3.77162 15027 ft 377 kts
2026-05-06 08:45 42.96249 -3.76321 14482 ft 376 kts 24°
2026-05-06 08:45 42.98510 -3.74555 13907 ft 372 kts 32°
2026-05-06 08:45 43.00537 -3.72374 13281 ft 370 kts 40°
2026-05-06 08:45 43.02390 -3.69948 12625 ft 368 kts 43°
2026-05-06 08:46 43.04200 -3.67490 11989 ft 365 kts 43°
2026-05-06 08:46 43.05985 -3.65076 11630 ft 355 kts 42°
2026-05-06 08:46 43.07767 -3.62768 11114 ft 351 kts 41°
2026-05-06 08:46 43.09553 -3.60505 10539 ft 349 kts 41°
2026-05-06 08:47 43.11318 -3.58258 10026 ft 346 kts 41°
2026-05-06 08:47 43.13048 -3.56042 9465 ft 343 kts 41°
2026-05-06 08:47 43.14754 -3.53761 8863 ft 340 kts 43°
2026-05-06 08:47 43.16434 -3.51484 8267 ft 338 kts 43°
2026-05-06 08:48 43.18119 -3.49266 7656 ft 335 kts 40°
2026-05-06 08:48 43.19848 -3.47163 7027 ft 331 kts 37°
2026-05-06 08:48 43.21655 -3.45224 6369 ft 329 kts 33°
2026-05-06 08:48 43.23532 -3.43440 5681 ft 325 kts 30°
2026-05-06 08:49 43.25432 -3.41871 5378 ft 311 kts 26°
2026-05-06 08:49 43.27313 -3.40554 5223 ft 294 kts 21°
2026-05-06 08:49 43.29209 -3.39885 5136 ft 275 kts 355°
2026-05-06 08:49 43.30959 -3.40662 5122 ft 267 kts 322°
2026-05-06 08:50 43.32089 -3.42628 5146 ft 263 kts 296°
2026-05-06 08:50 43.32863 -3.44906 5135 ft 264 kts 293°
2026-05-06 08:50 43.33517 -3.47276 5086 ft 262 kts 289°
2026-05-06 08:50 43.34068 -3.49623 4819 ft 256 kts 288°
2026-05-06 08:51 43.34651 -3.51888 4426 ft 246 kts 290°
2026-05-06 08:51 43.35226 -3.54057 4085 ft 237 kts 290°
2026-05-06 08:51 43.35789 -3.56147 3724 ft 229 kts 290°
2026-05-06 08:51 43.36332 -3.58160 3482 ft 219 kts 290°
2026-05-06 08:52 43.36841 -3.60070 3197 ft 202 kts 290°
2026-05-06 08:52 43.37310 -3.61796 2953 ft 187 kts 290°
2026-05-06 08:52 43.37755 -3.63423 2720 ft 176 kts 289°
2026-05-06 08:52 43.38171 -3.64976 2518 ft 170 kts 288°
2026-05-06 08:53 43.38553 -3.66478 2311 ft 159 kts 288°
2026-05-06 08:53 43.38908 -3.67816 2078 ft 143 kts 289°
2026-05-06 08:53 43.39248 -3.69069 1833 ft 137 kts 289°
2026-05-06 08:53 43.39577 -3.70279 1617 ft 132 kts 290°
2026-05-06 08:54 43.39886 -3.71447 1428 ft 127 kts 289°
2026-05-06 08:54 43.40190 -3.72559 1212 ft 124 kts 290°
2026-05-06 08:54 43.40480 -3.73656 1036 ft 119 kts 289°
2026-05-06 08:54 43.40765 -3.74712 895 ft 118 kts 290°
2026-05-06 08:55 43.41042 -3.75755 807 ft 113 kts 289°
2026-05-06 08:55 43.41330 -3.76747 671 ft 111 kts 290°
2026-05-06 08:55 43.41608 -3.77740 566 ft 113 kts 288°
2026-05-06 08:55 43.41863 -3.78795 387 ft 119 kts 288°
2026-05-06 08:56 43.42148 -3.79879 198 ft 121 kts 288°
2026-05-06 08:56 43.42428 -3.80947 43 ft 115 kts 289°
2026-05-06 08:56 43.42673 -3.81868 18 ft 66 kts 290°
2026-05-06 08:56 43.42741 -3.82140 16 ft 20 kts 279°
2026-05-06 08:57 43.42694 -3.82244 18 ft 11 kts 204°
2026-05-06 08:57 43.42666 -3.82262 19 ft 0 kts 200°
2026-05-06 08:57 43.42647 -3.82272 20 ft 6 kts 199°
2026-05-06 08:57 43.42597 -3.82295 18 ft 9 kts 198°
2026-05-06 08:58 43.42529 -3.82326 20 ft 12 kts 198°
2026-05-06 08:58 43.42460 -3.82391 18 ft 12 kts 226°
2026-05-06 08:58 43.42428 -3.82420 18 ft 2 kts 228°
2026-05-06 08:58 43.42424 -3.82427 18 ft 0 kts 241°